Location: Berlin
(42.3812°N, 71.6370°W)
Time: 05:37:22
(UTC+00:00)

Cosmos 1025 Rocket - Pass Details

Date: 15 November 2025
Orbit: 586 x 610 km, 82.5° (Epoch: 09 December)

Event Time Altitude Azimuth Distance (km) Brightness Sun altitude
Rises 10:26:35 0° 184° (S) 2,855 6.6 -13.2°
Reaches altitude 10° 10:28:47 10° 183° (S) 1,958 5.8 -12.8°
Maximum altitude 10:33:08 80° 96° (E) 625 3.2 -12.1°
Drops below altitude 10° 10:37:30 10° 10° (N) 1,974 5.6 -11.3°
Sets 10:39:44 0° 10° (N) 2,882 6.4 -10.9°
